| time (UTC) | temp F | wind direction | speed knots | gust knots | rain 1hr in | rain 24hr in | rain mn in | humidity % | barometer mb |
| 20260504184543 | 75 | 251 | 4.3 | 10.4 | 0.00 | 0.00 | 0.00 | 32 | 1012.7 |
| 20260504183041 | 74 | 238 | 6.1 | 12.2 | 0.00 | 0.00 | 0.00 | 32 | 1012.8 |
| 20260504181541 | 74 | 245 | 7.0 | 10.4 | 0.00 | 0.00 | 0.00 | 31 | 1013.1 |
| 20260504180041 | 73 | 209 | 6.1 | 13.9 | 0.00 | 0.00 | 0.00 | 33 | 1013.0 |
| 20260504174541 | 73 | 212 | 7.0 | 17.4 | 0.00 | 0.00 | 0.00 | 32 | 1013.2 |
| 20260504173051 | 73 | 184 | 5.2 | 14.8 | 0.00 | 0.00 | 0.00 | 32 | 1013.3 |
| 20260504171545 | 73 | 261 | 7.0 | 16.5 | 0.00 | 0.00 | 0.00 | 33 | 1013.4 |
| 20260504081544 | 50 | 264 | 5.2 | 13.9 | 0.00 | 0.00 | 0.00 | 75 | 1016.7 |
| 20260504044546 | 49 | 243 | 3.5 | 7.0 | 0.00 | 0.00 | 0.00 | 58 | 1016.6 |
| 20260504043053 | 49 | 193 | 3.5 | 6.1 | 0.00 | 0.00 | 0.00 | 58 | 1016.6 |
| 20260504041549 | 49 | 190 | 2.6 | 7.0 | 0.00 | 0.00 | 0.00 | 58 | 1016.4 |
| 20260504040046 | 49 | 201 | 3.5 | 6.1 | 0.00 | 0.00 | 0.00 | 57 | 1016.2 |
| 20260504034547 | 49 | 205 | 2.6 | 6.1 | 0.00 | 0.00 | 0.00 | 56 | 1016.1 |
| 20260504033050 | 49 | 196 | 2.6 | 5.2 | 0.00 | 0.00 | 0.00 | 55 | 1016.0 |
| 20260504031544 | 50 | 360 | 2.6 | 5.2 | 0.00 | 0.00 | 0.00 | 55 | 1016.0 |
| 20260504030041 | 50 | 360 | 3.5 | 5.2 | 0.00 | 0.00 | 0.00 | 54 | 1016.0 |
| 20260504024546 | 50 | 194 | 1.7 | 4.3 | 0.00 | 0.00 | 0.00 | 54 | 1016.0 |
| 20260504023042 | 50 | 203 | 2.6 | 6.1 | 0.00 | 0.00 | 0.00 | 53 | 1015.9 |
| 20260504021541 | 50 | 203 | 1.7 | 3.5 | 0.00 | 0.00 | 0.00 | 52 | 1016.0 |
| 20260504020041 | 51 | 203 | 1.7 | 4.3 | 0.00 | 0.00 | 0.00 | 51 | 1016.0 |
| 20260504014543 | 51 | 203 | 1.7 | 5.2 | 0.00 | 0.00 | 0.00 | 51 | 1015.9 |
| 20260504013055 | 52 | 263 | 0.9 | 5.2 | 0.00 | 0.00 | 0.00 | 49 | 1015.7 |
| 20260504011541 | 52 | 263 | 0.0 | 2.6 | 0.00 | 0.00 | 0.00 | 47 | 1015.6 |
| 20260504010043 | 53 | 263 | 1.7 | 3.5 | 0.00 | 0.00 | 0.00 | 47 | 1015.5 |
| 20260504004541 | 54 | 263 | 0.9 | 2.6 | 0.00 | 0.00 | 0.00 | 45 | 1015.5 |
| 20260504003039 | 54 | 263 | 0.9 | 2.6 | 0.00 | 0.00 | 0.00 | 44 | 1015.3 |
| 20260504001547 | 55 | 360 | 0.9 | 2.6 | 0.00 | 0.00 | 0.00 | 42 | 1014.9 |
| 20260504000041 | 56 | 360 | 1.7 | 3.5 | 0.00 | 0.00 | 0.00 | 40 | 1014.8 |
| 20260503234543 | 57 | 360 | 1.7 | 6.1 | 0.00 | 0.00 | 0.00 | 39 | 1014.8 |
| 20260503233040 | 58 | 281 | 3.5 | 10.4 | 0.00 | 0.00 | 0.00 | 38 | 1014.7 |
| 20260503231543 | 58 | 275 | 6.1 | 14.8 | 0.00 | 0.00 | 0.00 | 37 | 1014.7 |
| 20260503230044 | 59 | 261 | 4.3 | 12.2 | 0.00 | 0.00 | 0.00 | 37 | 1014.6 |
| 20260503224542 | 59 | 273 | 5.2 | 15.6 | 0.00 | 0.00 | 0.00 | 37 | 1014.6 |
| 20260503223044 | 59 | 240 | 4.3 | 13.9 | 0.00 | 0.00 | 0.00 | 37 | 1014.5 |
| 20260503221556 | 59 | 270 | 4.3 | 12.2 | 0.00 | 0.00 | 0.00 | 37 | 1014.5 |
| 20260503220043 | 59 | 5 | 6.1 | 14.8 | 0.00 | 0.00 | 0.00 | 36 | 1014.5 |
| 20260503214541 | 59 | 301 | 7.0 | 13.9 | 0.00 | 0.00 | 0.00 | 35 | 1014.4 |
| 20260503213046 | 59 | 246 | 4.3 | 20.0 | 0.00 | 0.00 | 0.00 | 37 | 1014.3 |
| 20260503211544 | 59 | 271 | 6.1 | 17.4 | 0.00 | 0.00 | 0.00 | 35 | 1014.4 |
| 20260503210042 | 59 | 241 | 8.7 | 20.0 | 0.00 | 0.00 | 0.00 | 34 | 1014.2 |
| 20260503204549 | 59 | 302 | 9.6 | 19.1 | 0.00 | 0.00 | 0.00 | 35 | 1014.2 |
| 20260503203044 | 59 | 274 | 9.6 | 15.6 | 0.00 | 0.00 | 0.00 | 34 | 1014.3 |
| 20260503201541 | 59 | 265 | 9.6 | 21.7 | 0.00 | 0.00 | 0.00 | 33 | 1014.2 |
| 20260503200042 | 59 | 272 | 11.3 | 22.6 | 0.00 | 0.00 | 0.00 | 34 | 1014.4 |
| 20260503194546 | 59 | 262 | 6.1 | 20.0 | 0.00 | 0.00 | 0.00 | 34 | 1014.6 |
| 20260503193106 | 59 | 360 | 5.2 | 17.4 | 0.00 | 0.00 | 0.00 | 35 | 1014.6 |
| 20260503191604 | 59 | 249 | 7.0 | 17.4 | 0.00 | 0.00 | 0.00 | 37 | 1014.6 |
| 20260503190042 | 58 | 277 | 6.1 | 20.9 | 0.00 | 0.00 | 0.00 | 37 | 1014.7 |